TimeCDT,TemperatureF,Dew PointF,Humidity,Sea Level PressureIn,VisibilityMPH,Wind Direction,Wind SpeedMPH,Gust SpeedMPH,PrecipitationIn,Events,Conditions,WindDirDegrees,DateUTC
12:56 AM,70.0,35.1,28,29.77,10.0,NNE,5.8,-,N/A,,Clear,30,2013-05-15 05:56:00
1:56 AM,69.1,35.1,29,29.77,10.0,NE,9.2,-,N/A,,Clear,40,2013-05-15 06:56:00
2:56 AM,66.0,37.9,36,29.81,10.0,NE,6.9,-,N/A,,Clear,40,2013-05-15 07:56:00
3:56 AM,63.0,39.9,43,29.83,10.0,NE,6.9,-,N/A,,Clear,40,2013-05-15 08:56:00
4:56 AM,61.0,41.0,48,29.83,10.0,East,6.9,-,N/A,,Clear,80,2013-05-15 09:56:00
5:56 AM,60.1,43.0,53,29.84,10.0,East,6.9,-,N/A,,Clear,100,2013-05-15 10:56:00
6:56 AM,61.0,43.0,52,29.92,10.0,NNE,6.9,-,N/A,,Clear,30,2013-05-15 11:56:00
7:56 AM,63.0,44.1,50,29.91,10.0,ENE,10.4,-,N/A,,Clear,60,2013-05-15 12:56:00
8:56 AM,64.9,41.0,42,29.92,10.0,ENE,17.3,23.0,N/A,,Clear,70,2013-05-15 13:56:00
9:56 AM,66.0,39.9,38,29.94,10.0,ENE,18.4,-,N/A,,Clear,60,2013-05-15 14:56:00
10:56 AM,70.0,37.0,30,29.92,10.0,East,18.4,25.3,N/A,,Clear,80,2013-05-15 15:56:00
11:56 AM,73.0,39.0,29,29.91,10.0,East,16.1,27.6,N/A,,Clear,80,2013-05-15 16:56:00
12:56 PM,77.0,37.9,24,29.88,10.0,East,16.1,23.0,N/A,,Clear,90,2013-05-15 17:56:00
1:56 PM,79.0,37.0,22,29.86,10.0,East,15.0,26.5,N/A,,Clear,90,2013-05-15 18:56:00
2:56 PM,81.0,39.0,22,29.85,10.0,East,15.0,21.9,N/A,,Clear,100,2013-05-15 19:56:00
3:56 PM,82.9,39.9,22,29.84,10.0,East,13.8,-,N/A,,Clear,100,2013-05-15 20:56:00
4:56 PM,82.0,39.0,22,29.83,10.0,East,16.1,21.9,N/A,,Clear,100,2013-05-15 21:56:00
5:56 PM,81.0,39.0,22,29.82,10.0,East,6.9,-,N/A,,Clear,90,2013-05-15 22:56:00
6:56 PM,81.0,39.0,22,29.81,10.0,East,10.4,-,N/A,,Clear,100,2013-05-15 23:56:00
7:56 PM,78.1,41.0,27,29.81,10.0,ESE,6.9,-,N/A,,Clear,120,2013-05-16 00:56:00
8:56 PM,71.1,41.0,34,29.82,10.0,Calm,Calm,-,N/A,,Clear,0,2013-05-16 01:56:00
9:56 PM,69.1,41.0,36,29.83,10.0,Calm,Calm,-,N/A,,Clear,0,2013-05-16 02:56:00
10:56 PM,66.0,41.0,40,29.85,10.0,Calm,Calm,-,N/A,,Clear,0,2013-05-16 03:56:00
11:56 PM,62.1,42.1,48,29.85,10.0,ESE,3.5,-,N/A,,Mostly Cloudy,110,2013-05-16 04:56:00